ANTARES R/B

Last updated on Sat Aug 05 2023 00:02:05 GMT+0000 (Coordinated Universal Time)

1 57489U 23110B 23215.94899306 .03181255 11830-4 69898-3 0 9996 2 57489 51.6137 91.4499 0063558 152.3810 37.9290 16.23752670 303

Satellite not in orbit